Find Starlink 1598

NORAD ID: 46160 Int'l Des: 2020-057 Owner: SPXS Country: US Constellation: starlink operational
LEOCIRCULAR

当前视图

正在加载3D地球...

About Starlink 1598

Starlink 1598 (NORAD 46160) is a starlink constellation satellite (v1.0) launched Aug 18, 2020 by SPXS of US. It operates in LEO, CIRCULAR orbit with a mass of 260.00 kg.

即将过境

Passes for default location (London). Set your location on the main map for personalized predictions.

高度历史

Loading altitude history...

两行轨道根数

1 46160U 20057AV 26246.64123973 .00451984 10380-3 70274-3 0 9995
2 46160 53.0317 119.8604 0005555 197.6364 162.4475 16.03541582335783
Epoch: Sep 3, 2026 • Age: 9 hours

当前状态

高度 270.7 km
远地点 / 近地点 N/A
速度 7.74 km/s
星下点 -15.40°S, 118.65°E
发射日期 Aug 18, 2020
运行时间 6 years
类型 internet

技术详情

分类 Payload
质量 260.00 kg
干质量 248.00 kg
总质量 260.00 kg
长度 0.20 m
直径 2.80 m
跨度 9.00 m
形状 Box + pan
制造商 SPXS
平台类型 Starlink
阶段状态 In Orbit
所有者/国家 SPXS/US

Most Searched